Home > Time Zones > World Clock > Weather > India > Theni > Past weeks

Flag for India Weather past 2 weeks in Theni, Tamil Nadu, India

Now
N/A

Fog.


Feels Like: N/A
Forecast: 75 / 93 °F
Wind: 14 mph from South

Location: Coimbatore / Peelamedu

Current Time: Aug 2, 2015 at 6:48:27 PM

Latest Report: Aug 2, 2015 at 6:30 PM


Visibility: 3 mi

Pressure: 29.83 "Hg

Humidity: N/A

Dew point: N/A

Location of TheniLocation

Historic Weather in Theni — Graph

°F

Theni temperature yesterday

Maximum temperature yesterday: 90 °F (at 12:30 PM)
Minimum temperature yesterday: 73 °F (at 4:30 AM)
Average temperature yesterday: 82 °F

Past Weeks' High & Low Weather Summary

 TemperatureHumidityPressure
High93 °F (Jul 31, 2:30 PM)94% (Jul 18, 10:00 PM)29.95 "Hg (Jul 18, 10:00 PM)
Low72 °F (Jul 19, 11:30 PM)44% (Jul 29, 1:00 PM)29.71 "Hg (Jul 20, 3:30 PM)
Average80 °F73%29.86 "Hg
* Reported Jul 18 5:30 PM — Aug 2 5:30 PM, Theni, Weather by CustomWeather, © 2015

Note: Actual official high and low records may vary slightly from our data, if they occured in-between our weather recording intervals... More about our weather records

Advertising

Theni weather history for previous 24 hours

 ConditionsComfort  
Time TempWeatherWind HumidityBarometerVisibility
5:30 PM
Sun, Aug 2
N/ABroken clouds.12 mphN/A29.83 "Hg4 mi
5:00 PMN/ABroken clouds.12 mphN/A29.83 "Hg4 mi
4:30 PMN/ABroken clouds.13 mphN/A29.83 "Hg4 mi
3:30 PMN/ADrizzle.12 mphN/A29.83 "Hg4 mi
3:00 PM88 °FBroken clouds.12 mph59%29.86 "Hg4 mi
2:30 PM88 °FScattered clouds.9 mph59%29.86 "Hg4 mi
2:00 PM88 °FPassing clouds.12 mph55%29.86 "Hg4 mi
1:30 PM88 °FPassing clouds.7 mph55%29.89 "Hg4 mi
1:00 PM88 °FScattered clouds.7 mph55%29.92 "Hg4 mi
12:30 PM88 °FScattered clouds.9 mph55%29.92 "Hg4 mi
12:00 PM86 °FScattered clouds.8 mph59%29.95 "Hg3 mi
11:30 AM84 °FScattered clouds.9 mph62%29.95 "Hg3 mi
11:00 AM82 °FScattered clouds.10 mphN/AN/A3 mi
10:30 AM81 °FScattered clouds.8 mphN/AN/A3 mi
9:30 AM79 °FFog.6 mph79%29.95 "Hg3 mi
9:00 AM77 °FFog.No wind79%29.95 "Hg3 mi
8:30 AM77 °FFog.2 mph83%29.95 "Hg3 mi
8:00 AM75 °FFog.5 mph89%29.95 "Hg2 mi
7:30 AM75 °FFog.2 mph89%29.92 "Hg2 mi
7:00 AM73 °FFog.6 mph94%29.92 "Hg2 mi
6:30 AM73 °FFog.9 mph94%29.92 "Hg2 mi
6:00 AM73 °FFog.6 mph94%29.92 "Hg2 mi
5:30 AM73 °FFog.9 mph94%29.92 "Hg2 mi
4:30 AM73 °FFog.6 mph94%29.92 "Hg2 mi
3:30 AM73 °FFog.6 mph94%29.89 "Hg2 mi
3:00 AM73 °FFog.7 mph94%29.89 "Hg2 mi
2:30 AM75 °FFog.9 mph89%29.89 "Hg2 mi
1:30 AM75 °FFog.7 mph89%29.92 "Hg3 mi
12:30 AM75 °FFog.7 mph89%29.95 "Hg3 mi
11:30 PM
Sat, Aug 1
75 °FFog.12 mph89%29.95 "Hg3 mi
10:30 PM77 °FHaze.9 mph79%29.95 "Hg3 mi
10:00 PM77 °FHaze.9 mph79%29.95 "Hg3 mi
9:30 PM77 °FHaze.9 mph79%29.92 "Hg3 mi
8:30 PM79 °FPassing clouds.9 mph74%29.92 "Hg3 mi
7:30 PM82 °FPassing clouds.9 mph70%29.89 "Hg4 mi
7:00 PM82 °FPassing clouds.12 mph70%29.86 "Hg4 mi
6:30 PM84 °FPassing clouds.8 mph66%29.86 "Hg4 mi
6:00 PM84 °FPassing clouds.9 mph66%29.86 "Hg4 mi
Weather by CustomWeather, © 2015

See weather overviewHow to use our weather pages